JTA86 ROIG-RJBB

Flight info

Callsign JTA86
Flight time N/A
Altitude 35000
Route MJC Y62 YURIX Y26 SEPIA B597 SUC Y53 NIXOV
Aircraft B738/M-SDE2E3FGHIRWXY/LB1

Departure

Time N/A
Airport New Ishigaki Airport (ROIG)

Arrival

Time 2026-05-06 06:04
Airport Kansai International Airport (RJBB)
Time Latitude Longitude Altitude Speed Heading
2026-05-06 05:08 29.64690 130.16636 35040 ft 493 kts 50°
2026-05-06 05:09 29.69242 130.22552 35047 ft 494 kts 50°
2026-05-06 05:09 29.73814 130.28457 35048 ft 495 kts 50°
2026-05-06 05:10 29.77633 130.33379 35036 ft 496 kts 50°
2026-05-06 05:10 29.82229 130.39306 35040 ft 496 kts 50°
2026-05-06 05:11 29.86824 130.45245 35044 ft 496 kts 50°
2026-05-06 05:11 29.91412 130.51185 35046 ft 497 kts 50°
2026-05-06 05:12 29.96006 130.57142 35045 ft 497 kts 50°
2026-05-06 05:12 30.00793 130.62886 35040 ft 499 kts 40°
2026-05-06 05:13 30.06604 130.67131 35060 ft 498 kts 26°
2026-05-06 05:13 30.12800 130.70711 35051 ft 499 kts 25°
2026-05-06 05:14 30.18994 130.74341 35062 ft 499 kts 26°
2026-05-06 05:14 30.25157 130.78043 35056 ft 500 kts 26°
2026-05-06 05:15 30.31331 130.81769 35074 ft 500 kts 26°
2026-05-06 05:15 30.37517 130.85496 35068 ft 501 kts 26°
2026-05-06 05:16 30.43707 130.89226 35074 ft 503 kts 26°
2026-05-06 05:16 30.49931 130.92984 35070 ft 505 kts 26°
2026-05-06 05:17 30.56158 130.96751 35083 ft 506 kts 26°
2026-05-06 05:17 30.62215 131.00821 35070 ft 508 kts 37°
2026-05-06 05:18 30.67756 131.05879 35084 ft 507 kts 39°
2026-05-06 05:18 30.73292 131.10975 35078 ft 508 kts 38°
2026-05-06 05:19 30.78885 131.16009 35074 ft 509 kts 38°
2026-05-06 05:19 30.84477 131.21092 35080 ft 510 kts 38°
2026-05-06 05:20 30.90062 131.26191 35080 ft 511 kts 38°
2026-05-06 05:20 30.95662 131.31306 35082 ft 512 kts 38°
2026-05-06 05:21 31.01267 131.36430 35080 ft 512 kts 38°
2026-05-06 05:21 31.06864 131.41555 35078 ft 512 kts 38°
2026-05-06 05:22 31.12466 131.46691 35082 ft 512 kts 38°
2026-05-06 05:22 31.18057 131.51822 35083 ft 511 kts 38°
2026-05-06 05:23 31.23652 131.56963 35086 ft 511 kts 38°
2026-05-06 05:23 31.32040 131.64662 35090 ft 511 kts 38°
2026-05-06 05:24 31.37635 131.69807 35090 ft 511 kts 38°
2026-05-06 05:24 31.43222 131.74954 35091 ft 512 kts 38°
2026-05-06 05:25 31.48819 131.80120 35097 ft 512 kts 38°
2026-05-06 05:25 31.54414 131.85292 35092 ft 513 kts 38°
2026-05-06 05:26 31.60022 131.90488 35098 ft 514 kts 39°
2026-05-06 05:26 31.65596 131.95669 35097 ft 515 kts 39°
2026-05-06 05:27 31.71243 132.00929 35098 ft 516 kts 39°
2026-05-06 05:27 31.76831 132.06140 35100 ft 516 kts 38°
2026-05-06 05:28 31.82457 132.11395 35103 ft 517 kts 38°
2026-05-06 05:28 31.88098 132.16673 35104 ft 518 kts 38°
2026-05-06 05:29 31.93734 132.21954 35103 ft 518 kts 38°
2026-05-06 05:29 31.99381 132.27252 35107 ft 519 kts 38°
2026-05-06 05:30 32.05027 132.32559 35105 ft 519 kts 38°
2026-05-06 05:30 32.10666 132.37868 35102 ft 519 kts 38°
2026-05-06 05:31 32.16311 132.43192 35101 ft 519 kts 38°
2026-05-06 05:31 32.21947 132.48519 35114 ft 519 kts 38°
2026-05-06 05:32 32.27589 132.53863 35112 ft 520 kts 38°
2026-05-06 05:32 32.33225 132.59210 35112 ft 520 kts 38°
2026-05-06 05:33 32.38870 132.64574 35118 ft 520 kts 38°
2026-05-06 05:33 32.44509 132.69941 35121 ft 521 kts 38°
2026-05-06 05:34 32.50157 132.75326 35112 ft 521 kts 38°
2026-05-06 05:34 32.55803 132.80718 35114 ft 522 kts 38°
2026-05-06 05:35 32.61423 132.86095 35118 ft 522 kts 38°
2026-05-06 05:35 32.67042 132.91480 35092 ft 510 kts 38°
2026-05-06 05:36 32.69764 132.94093 35092 ft 496 kts 38°
2026-05-06 05:36 32.72415 132.96639 35046 ft 486 kts 38°
2026-05-06 05:36 32.74974 132.99220 34786 ft 481 kts 44°
2026-05-06 05:36 32.77243 133.02155 34159 ft 485 kts 56°
2026-05-06 05:37 32.79262 133.05451 33039 ft 502 kts 58°
2026-05-06 05:37 32.81256 133.08900 32284 ft 509 kts 58°
2026-05-06 05:37 32.83248 133.12380 31894 ft 506 kts 57°
2026-05-06 05:37 32.85230 133.15809 31629 ft 500 kts 56°
2026-05-06 05:38 32.87206 133.19185 31334 ft 495 kts 56°
2026-05-06 05:38 32.89181 133.22527 30971 ft 493 kts 55°
2026-05-06 05:38 32.91153 133.25848 30583 ft 491 kts 54°
2026-05-06 05:38 32.93122 133.29162 30213 ft 489 kts 54°
2026-05-06 05:39 32.95077 133.32456 29833 ft 485 kts 54°
2026-05-06 05:39 32.97010 133.35719 29484 ft 480 kts 54°
2026-05-06 05:39 32.98928 133.38961 29107 ft 477 kts 54°
2026-05-06 05:39 33.00828 133.42177 28708 ft 474 kts 54°
2026-05-06 05:40 33.02719 133.45382 28314 ft 471 kts 54°
2026-05-06 05:40 33.04592 133.48560 27939 ft 467 kts 54°
2026-05-06 05:40 33.06452 133.51723 27580 ft 464 kts 54°
2026-05-06 05:40 33.08293 133.54859 27228 ft 460 kts 54°
2026-05-06 05:41 33.10123 133.57980 26883 ft 457 kts 54°
2026-05-06 05:41 33.11937 133.61077 26539 ft 454 kts 54°
2026-05-06 05:41 33.13733 133.64144 26200 ft 450 kts 54°
2026-05-06 05:41 33.15521 133.67198 25873 ft 447 kts 55°
2026-05-06 05:42 33.17289 133.70224 25550 ft 444 kts 55°
2026-05-06 05:42 33.19054 133.73245 25222 ft 441 kts 55°
2026-05-06 05:42 33.20796 133.76228 24894 ft 438 kts 55°
2026-05-06 05:42 33.22531 133.79203 24575 ft 435 kts 55°
2026-05-06 05:43 33.24254 133.82160 24265 ft 432 kts 55°
2026-05-06 05:43 33.25964 133.85098 23957 ft 429 kts 55°
2026-05-06 05:43 33.27657 133.88006 23655 ft 425 kts 56°
2026-05-06 05:43 33.29339 133.90898 23317 ft 422 kts 55°
2026-05-06 05:44 33.31006 133.93768 22980 ft 418 kts 55°
2026-05-06 05:44 33.32661 133.96617 22630 ft 416 kts 55°
2026-05-06 05:44 33.34307 133.99449 22288 ft 413 kts 55°
2026-05-06 05:44 33.35936 134.02255 21972 ft 410 kts 54°
2026-05-06 05:45 33.37556 134.05046 21666 ft 406 kts 54°
2026-05-06 05:45 33.39160 134.07816 21369 ft 403 kts 55°
2026-05-06 05:45 33.40748 134.10556 21082 ft 398 kts 54°
2026-05-06 05:45 33.42320 134.13273 20791 ft 395 kts 54°
2026-05-06 05:46 33.43877 134.15965 20456 ft 393 kts 54°
2026-05-06 05:46 33.45409 134.18616 20187 ft 391 kts 54°
2026-05-06 05:46 33.46953 134.21292 19900 ft 389 kts 54°
2026-05-06 05:46 33.48487 134.23961 19612 ft 388 kts 54°
2026-05-06 05:47 33.50007 134.26610 19382 ft 382 kts 54°
2026-05-06 05:47 33.51523 134.29259 19079 ft 380 kts 54°
2026-05-06 05:47 33.52996 134.31833 18748 ft 379 kts 53°
2026-05-06 05:47 33.54484 134.34435 18431 ft 377 kts 53°
2026-05-06 05:48 33.55976 134.37047 18141 ft 373 kts 53°
2026-05-06 05:48 33.57434 134.39598 17894 ft 368 kts 53°
2026-05-06 05:48 33.58872 134.42116 17608 ft 364 kts 53°
2026-05-06 05:48 33.60288 134.44565 17302 ft 360 kts 49°
2026-05-06 05:49 33.62096 134.46560 16988 ft 349 kts 26°
2026-05-06 05:49 33.64246 134.47798 16716 ft 339 kts 17°
2026-05-06 05:49 33.66423 134.48841 16415 ft 336 kts 16°
2026-05-06 05:49 33.68626 134.49855 16091 ft 333 kts 16°
2026-05-06 05:50 33.70749 134.50832 15800 ft 331 kts 17°
2026-05-06 05:50 33.72890 134.51828 15497 ft 328 kts 17°
2026-05-06 05:50 33.75006 134.52821 15211 ft 325 kts 17°
2026-05-06 05:50 33.77098 134.53811 14932 ft 322 kts 18°
2026-05-06 05:51 33.79174 134.54798 14657 ft 320 kts 18°
2026-05-06 05:51 33.81235 134.55782 14380 ft 317 kts 19°
2026-05-06 05:51 33.83281 134.56760 14089 ft 315 kts 19°
2026-05-06 05:51 33.85311 134.57733 13784 ft 313 kts 19°
2026-05-06 05:52 33.87325 134.58699 13469 ft 311 kts 19°
2026-05-06 05:52 33.89332 134.59662 13148 ft 309 kts 19°
2026-05-06 05:52 33.91321 134.60617 12807 ft 308 kts 19°
2026-05-06 05:52 33.93305 134.61571 12490 ft 306 kts 19°
2026-05-06 05:53 33.95275 134.62518 12230 ft 303 kts 19°
2026-05-06 05:53 33.97219 134.63454 12004 ft 298 kts 19°
2026-05-06 05:53 33.99138 134.64377 11746 ft 295 kts 19°
2026-05-06 05:53 34.01040 134.65293 11439 ft 295 kts 19°
2026-05-06 05:54 34.02942 134.66209 11140 ft 293 kts 19°
2026-05-06 05:54 34.04834 134.67120 10855 ft 292 kts 19°
2026-05-06 05:54 34.06715 134.68028 10572 ft 290 kts 19°
2026-05-06 05:54 34.08583 134.68928 10287 ft 289 kts 20°
2026-05-06 05:55 34.10447 134.69828 10009 ft 288 kts 20°
2026-05-06 05:55 34.12303 134.70724 9692 ft 286 kts 20°
2026-05-06 05:55 34.14134 134.71664 9363 ft 286 kts 29°
2026-05-06 05:55 34.15598 134.73279 9027 ft 287 kts 55°
2026-05-06 05:56 34.16605 134.75339 8789 ft 285 kts 62°
2026-05-06 05:56 34.17539 134.77442 8514 ft 284 kts 62°
2026-05-06 05:56 34.18464 134.79541 8232 ft 282 kts 62°
2026-05-06 05:56 34.19389 134.81627 7951 ft 281 kts 62°
2026-05-06 05:57 34.20314 134.83696 7690 ft 279 kts 62°
2026-05-06 05:57 34.21235 134.85746 7485 ft 277 kts 62°
2026-05-06 05:57 34.22157 134.87791 7267 ft 277 kts 63°
2026-05-06 05:57 34.23076 134.89826 7011 ft 275 kts 63°
2026-05-06 05:58 34.23683 134.91170 6820 ft 273 kts 63°
2026-05-06 05:58 34.24587 134.93171 6398 ft 271 kts 63°
2026-05-06 05:58 34.25563 134.95117 5903 ft 271 kts 54°
2026-05-06 05:58 34.26745 134.96882 5442 ft 270 kts 51°
2026-05-06 05:59 34.28358 134.99164 4870 ft 268 kts 52°
2026-05-06 05:59 34.29165 135.00325 4573 ft 267 kts 52°
2026-05-06 05:59 34.30335 135.02033 4309 ft 258 kts 53°
2026-05-06 05:59 34.31453 135.03680 4091 ft 249 kts 53°
2026-05-06 06:00 34.32517 135.05252 4019 ft 233 kts 53°
2026-05-06 06:00 34.33307 135.06845 3871 ft 212 kts 76°
2026-05-06 06:00 34.33663 135.08504 3690 ft 199 kts 79°
2026-05-06 06:00 34.34003 135.10072 3521 ft 187 kts 78°
2026-05-06 06:01 34.34376 135.11588 3081 ft 190 kts 67°
2026-05-06 06:01 34.35087 135.12930 2597 ft 190 kts 57°
2026-05-06 06:01 34.35873 135.14225 2080 ft 191 kts 53°
2026-05-06 06:01 34.36713 135.15464 1639 ft 186 kts 51°
2026-05-06 06:02 34.37509 135.16628 1374 ft 174 kts 51°
2026-05-06 06:02 34.38237 135.17713 1138 ft 158 kts 51°
2026-05-06 06:02 34.38897 135.18698 922 ft 145 kts 50°
2026-05-06 06:02 34.39516 135.19621 741 ft 140 kts 50°
2026-05-06 06:03 34.40140 135.20543 532 ft 143 kts 49°
2026-05-06 06:03 34.40757 135.21471 354 ft 141 kts 50°
2026-05-06 06:03 34.41375 135.22398 155 ft 142 kts 50°
2026-05-06 06:03 34.41992 135.23320 24 ft 140 kts 50°
2026-05-06 06:04 34.42568 135.24166 20 ft 111 kts 51°
2026-05-06 06:04 34.42942 135.24716 18 ft 60 kts 46°
2026-05-06 06:04 34.43193 135.24882 20 ft 24 kts
2026-05-06 06:04 34.43214 135.24780 17 ft 17 kts 231°
2026-05-06 06:05 34.43142 135.24675 17 ft 16 kts 230°
2026-05-06 06:05 34.43074 135.24573 15 ft 15 kts 230°
2026-05-06 06:05 34.43007 135.24476 14 ft 15 kts 230°
2026-05-06 06:05 34.42944 135.24382 16 ft 14 kts 231°
2026-05-06 06:06 34.42882 135.24288 16 ft 15 kts 231°
2026-05-06 06:06 34.42809 135.24177 18 ft 18 kts 231°
2026-05-06 06:06 34.42726 135.24053 19 ft 20 kts 230°
2026-05-06 06:06 34.42650 135.23914 16 ft 18 kts 272°
2026-05-06 06:07 34.42744 135.23799 13 ft 21 kts 322°
2026-05-06 06:07 34.42856 135.23686 18 ft 21 kts 320°
2026-05-06 06:07 34.42965 135.23582 16 ft 18 kts 334°
2026-05-06 06:07 34.43056 135.23636 17 ft 15 kts 53°
2026-05-06 06:08 34.43120 135.23738 18 ft 16 kts 53°
2026-05-06 06:08 34.43191 135.23847 18 ft 18 kts 52°
2026-05-06 06:08 34.43248 135.23957 20 ft 10 kts 87°
2026-05-06 06:08 34.43205 135.23988 20 ft 6 kts 169°
2026-05-06 06:09 34.43196 135.23998 21 ft 2 kts 136°
2026-05-06 06:09 34.43190 135.24005 20 ft 0 kts 138°